2023/10/15 00:00:00,83.7,15.0
2023/10/15 00:10:00,83.2,15.1
2023/10/15 00:20:00,83.3,15.1
2023/10/15 00:30:00,82.7,15.0
2023/10/15 00:40:00,82.7,15.0
2023/10/15 00:50:00,82.3,14.9
2023/10/15 01:00:00,57.9,15.1
2023/10/15 01:10:00, 1.0,14.9
2023/10/15 01:20:00, 1.0,14.8
2023/10/15 01:30:00, 0.9,14.8
2023/10/15 01:40:00, 1.0,14.6
2023/10/15 01:50:00, 1.1,14.6
2023/10/15 02:00:00, 1.1,14.4
2023/10/15 02:10:00, 1.0,14.2
2023/10/15 02:20:00, 0.9,14.0
2023/10/15 02:30:00, 1.0,13.9
2023/10/15 02:40:00, 0.9,13.8
2023/10/15 02:50:00, 0.9,13.5
2023/10/15 03:00:00, 0.7,13.3
2023/10/15 03:10:00, 0.7,13.0
2023/10/15 03:20:00, 0.7,12.6
2023/10/15 03:30:00, 0.7,12.8
2023/10/15 03:40:00, 0.7,12.5
2023/10/15 03:50:00, 0.9,12.3
2023/10/15 04:00:00, 1.0,12.3
2023/10/15 04:10:00, 0.9,12.1
2023/10/15 04:20:00, 1.0,12.2
2023/10/15 04:30:00, 1.0,12.6
2023/10/15 04:40:00,83.4,12.7
2023/10/15 04:50:00,83.4,12.7
2023/10/15 05:00:00,83.4,12.7
2023/10/15 05:10:00,83.0,12.5
2023/10/15 05:20:00,82.7,12.4
2023/10/15 05:30:00,---,12.3
2023/10/15 05:40:00,25.5,12.4
2023/10/15 05:50:00, 1.2,12.5
2023/10/15 06:00:00, 1.1,12.3
2023/10/15 06:10:00, 1.0,12.7
2023/10/15 06:20:00, 1.1,13.0
2023/10/15 06:30:00, 1.1,12.9
2023/10/15 06:40:00, 0.8,12.8
2023/10/15 06:50:00, 0.7,12.9
2023/10/15 07:00:00, 0.6,13.2
2023/10/15 07:10:00, 0.5,13.3
2023/10/15 07:20:00, 0.6,13.4
2023/10/15 07:30:00, 0.6,14.5
2023/10/15 07:40:00, 0.6,15.3
2023/10/15 07:50:00,---,16.1
2023/10/15 08:00:00,---,17.0
2023/10/15 08:10:00,---,17.6
2023/10/15 08:20:00, 0.0,19.1
2023/10/15 08:30:00, 0.0,19.8
2023/10/15 08:40:00, 0.0,20.2
2023/10/15 08:50:00, 0.0,20.9
2023/10/15 09:00:00, 0.0,23.1
2023/10/15 09:10:00, 0.0,22.8
2023/10/15 09:20:00, 0.0,24.5
2023/10/15 09:30:00, 0.0,22.4
2023/10/15 09:40:00, 0.0,20.9
2023/10/15 09:50:00, 0.0,19.4
2023/10/15 10:00:00, 0.0,18.4
2023/10/15 10:10:00, 0.0,18.0
2023/10/15 10:20:00, 0.1,17.0
2023/10/15 10:30:00, 0.1,17.2
2023/10/15 10:40:00, 0.0,16.7
2023/10/15 10:50:00, 0.1,16.6
2023/10/15 11:00:00, 0.1,16.5
2023/10/15 11:10:00, 0.0,17.1
2023/10/15 11:20:00, 0.0,17.3
2023/10/15 11:30:00, 0.0,18.2
2023/10/15 11:40:00, 0.0,22.3
2023/10/15 11:50:00, 0.0,22.8
2023/10/15 12:00:00, 0.0,22.0
2023/10/15 12:10:00, 0.0,20.9
2023/10/15 12:20:00, 0.1,20.8
2023/10/15 12:30:00, 0.1,19.6
2023/10/15 12:40:00, 0.1,22.2
2023/10/15 12:50:00, 0.2,20.5
2023/10/15 13:00:00, 0.2,20.6
2023/10/15 13:10:00, 0.1,18.9
2023/10/15 13:20:00, 0.2,18.0
2023/10/15 13:30:00, 0.2,17.1
2023/10/15 13:40:00, 0.2,17.2
2023/10/15 13:50:00, 0.1,19.5
2023/10/15 14:00:00, 0.2,18.9
2023/10/15 14:10:00, 0.2,18.6
2023/10/15 14:20:00, 0.1,18.7
2023/10/15 14:30:00, 0.2,17.8
2023/10/15 14:40:00, 0.2,17.5
2023/10/15 14:50:00, 0.1,17.8
2023/10/15 15:00:00, 0.1,18.3
2023/10/15 15:10:00, 0.1,18.2
2023/10/15 15:20:00, 0.2,18.0
2023/10/15 15:30:00, 0.1,17.9
2023/10/15 15:40:00, 0.2,18.4
2023/10/15 15:50:00, 0.2,17.8
2023/10/15 16:00:00, 0.3,17.3
2023/10/15 16:10:00, 0.2,17.0
2023/10/15 16:20:00, 0.2,16.9
2023/10/15 16:30:00, 0.3,16.8
2023/10/15 16:40:00, 0.3,16.8
2023/10/15 16:50:00, 0.3,16.4
2023/10/15 17:00:00, 0.3,16.2
2023/10/15 17:10:00, 0.3,15.9
2023/10/15 17:20:00, 0.3,15.8
2023/10/15 17:30:00, 0.6,15.7
2023/10/15 17:40:00, 0.9,15.4
2023/10/15 17:50:00, 0.9,15.2
2023/10/15 18:00:00, 0.9,15.3
2023/10/15 18:10:00, 0.8,15.0
2023/10/15 18:20:00, 0.4,14.6
2023/10/15 18:30:00, 0.6,14.0
2023/10/15 18:40:00, 0.6,14.3
2023/10/15 18:50:00, 0.6,14.2
2023/10/15 19:00:00, 0.7,14.2
2023/10/15 19:10:00, 0.8,14.2
2023/10/15 19:20:00, 0.8,14.3
2023/10/15 19:30:00, 0.9,14.3
2023/10/15 19:40:00, 1.0,14.3
2023/10/15 19:50:00, 0.9,14.3
2023/10/15 20:00:00, 0.9,14.5
2023/10/15 20:10:00, 0.9,14.2
2023/10/15 20:20:00, 0.9,14.5
2023/10/15 20:30:00, 0.9,14.3
2023/10/15 20:40:00, 1.0,14.2
2023/10/15 20:50:00, 1.0,14.1
2023/10/15 21:00:00, 0.9,13.9
2023/10/15 21:10:00, 0.9,13.7
2023/10/15 21:20:00, 0.8,13.5
2023/10/15 21:30:00, 0.8,13.2
2023/10/15 21:40:00, 0.8,12.9
2023/10/15 21:50:00, 0.8,12.8
2023/10/15 22:00:00, 0.8,12.6
2023/10/15 22:10:00, 0.7,12.5
2023/10/15 22:20:00, 0.7,12.5
2023/10/15 22:30:00, 0.7,12.4
2023/10/15 22:40:00, 0.7,12.0
2023/10/15 22:50:00, 0.6,12.1
2023/10/15 23:00:00, 0.7,12.0
2023/10/15 23:10:00, 0.6,11.8
2023/10/15 23:20:00, 0.7,11.8
2023/10/15 23:30:00, 0.7,11.5
2023/10/15 23:40:00, 0.7,11.3
2023/10/15 23:50:00, 0.7,11.4
